User: anonymous   Login
Location: Caltech
(34.1382°N, 118.1253°W)
Time: 10:22:35
(UTC-07:00)
Language:

NOAA 19 - Orbit

View from above orbital plane
View from above orbital plane
View from above satellite
View from above satellite

Ground track
Ground track

The orbit data is extracted from the following two-line orbital elements,

1 33591U 09005A   17117.89348672 +.00000104 +00000-0 +81534-4 0  9999
2 33591 099.0880 084.0177 0014922 056.0394 304.2193 14.12174414423290
Epoch (UTC): 27 April 2017 21:26:37
Eccentricity: 0.0014922
inclination: 99.0880°
perigee height: 841 km
apogee height: 863 km
right ascension of ascending node: 84.0177°
argument of perigee: 56.0394°
revolutions per day: 14.12174414
mean anomaly at epoch: 304.2193°
orbit number at epoch: 42329

The dashed part of the orbit path shows where the satellite is in the earth's shadow,  

DLR